This is the latest recevied weather packets stored in our database for station/object IK1PCD-11. If no packets are shown the sender has not sent any weather packets the latest 10 day(s).
| Time | Temp. | Humidity | Pressure | Rain* | Wind** | Luminosity | Snow |
|---|---|---|---|---|---|---|---|
| 1777820289 | 15.56° C | 49% | 1018.1 hPa | - | - | - | - |
| 1777819388 | 16.11° C | 52% | 1018.1 hPa | - | - | - | - |
| 1777818488 | 15.56° C | 51% | 1018.3 hPa | - | - | - | - |
| 1777817588 | 16.11° C | 48% | 1018.4 hPa | - | - | - | - |
| 1777816684 | 15° C | 50% | 1018.7 hPa | - | - | - | - |
| 1777815783 | 15.56° C | 48% | 1018.8 hPa | - | - | - | - |
| 1777814883 | 16.11° C | 46% | 1019 hPa | - | - | - | - |
| 1777813983 | 15.56° C | 48% | 1019.1 hPa | - | - | - | - |
| 1777813083 | 14.44° C | 49% | 1019.3 hPa | - | - | - | - |
| 1777812183 | 13.89° C | 49% | 1019.5 hPa | - | - | - | - |
| 1777811283 | 15° C | 48% | 1019.5 hPa | - | - | - | - |
| 1777809261 | 17.22° C | 47% | 1019.5 hPa | - | - | - | - |
| 1777808361 | 16.67° C | 46% | 1019.3 hPa | - | - | - | - |
| 1777807462 | 16.11° C | 46% | 1019.2 hPa | - | - | - | - |
| 1777806553 | 15° C | 47% | 1019.1 hPa | - | - | - | - |
| 1777805652 | 15.56° C | 49% | 1019.4 hPa | - | - | - | - |
| 1777804752 | 15° C | 48% | 1019.5 hPa | - | - | - | - |
| 1777803851 | 15° C | 48% | 1019.4 hPa | - | - | - | - |
| 1777798675 | 14.44° C | 48% | 1019.3 hPa | - | - | - | - |
| 1777797775 | 14.44° C | 49% | 1019.4 hPa | - | - | - | - |
| 1777796875 | 13.89° C | 49% | 1019.4 hPa | - | - | - | - |
| 1777795975 | 12.22° C | 52% | 1019.3 hPa | - | - | - | - |
| 1777795075 | 11.67° C | 56% | 1019.2 hPa | - | - | - | - |
| 1777794175 | 11.11° C | 54% | 1019.2 hPa | - | - | - | - |
| 1777793274 | 11.11° C | 58% | 1019.2 hPa | - | - | - | - |
* Rain since midnight (hover to see other rain measurements)
** Current wind speed in m/s (hover to see current wind gust speed)